Location: Boss Branch
(32.3799°N, 97.2508°W)
Time: 23:19:20
(UTC+00:00)

JUGNU - Pass Details

Date: 05 December 2024
Orbit: 834 x 861 km, 20.0° (Epoch: 19 January)

Event Time Altitude Azimuth Distance (km) Brightness Sun altitude
Exits shadow 11:01:55 - 196° (SSW) 2,621 ? -27.7°
Reaches altitude 10° 11:03:08 10° 186° (S) 2,424 ? -27.4°
Maximum altitude 11:05:19 12° 163° (SSE) 2,275 ? -27.0°
Drops below altitude 10° 11:07:31 10° 141° (SE) 2,428 ? -26.5°
Sets 11:11:47 0° 112° (ESE) 3,369 ? -25.6°
